When you browse on this site, cookies collect data to enhance your experience and personalize the content and advertising you see.
Visit our Privacy Policy to learn more. By continuing to use the site, you agree to this use of cookies and data.
  • In Denmark
  • List of Countries
  • For 7 days
  • Water Temperature
  • Satellite Maps
  • Weather Map
  • Weather Widgets
  • user-avatar
    Login

    Hourly Weather Newcastle

    Today, 17 January, Thursday

    Time Temperature Precipitation Wind Pressure Humidity
    00:00 +25°C° 0 mm 3 mps 758 mmHg 83%
    01:00 +24°C° 0 mm 3 mps 758 mmHg 87%
    02:00 +22°C° 0 mm 3 mps 758 mmHg 90%
    03:00 +23°C° 0 mm 2 mps 758 mmHg 93%
    04:00 +23°C° 0 mm 2 mps 758 mmHg 88%
    05:00 +24°C° 0 mm 3 mps 758 mmHg 82%
    06:00 +26°C° 0 mm 3 mps 758 mmHg 76%
    07:00 +27°C° 0 mm 3 mps 758 mmHg 70%
    08:00 +30°C° 0 mm 3 mps 758 mmHg 57%
    09:00 +34°C° 0 mm 3 mps 758 mmHg 45%
    10:00 +38°C° 0 mm 3 mps 758 mmHg 33%
    11:00 +40°C° 0 mm 4 mps 758 mmHg 29%
    12:00 +42°C° 0 mm 4 mps 757 mmHg 25%
    13:00 +43°C° 0 mm 5 mps 757 mmHg 21%
    14:00 +42°C° 0 mm 5 mps 756 mmHg 23%
    15:00 +42°C° 0 mm 6 mps 756 mmHg 25%
    16:00 +41°C° 0 mm 6 mps 755 mmHg 28%
    17:00 +38°C° 0 mm 6 mps 756 mmHg 38%
    18:00 +34°C° 0 mm 6 mps 756 mmHg 48%
    19:00 +30°C° 0 mm 6 mps 756 mmHg 58%
    20:00 +29°C° 0 mm 6 mps 756 mmHg 64%
    21:00 +27°C° 0 mm 6 mps 757 mmHg 70%
    22:00 +26°C° 0 mm 6 mps 757 mmHg 77%
    23:00 +25°C° 0 mm 5 mps 757 mmHg 81%

    Tomorrow, 18 January, Friday

    Time Temperature Precipitation Wind Pressure Humidity
    00:00 +25°C° 0 mm 4 mps 757 mmHg 85%
    01:00 +23°C° 0 mm 4 mps 757 mmHg 88%
    02:00 +22°C° 0 mm 3 mps 757 mmHg 91%
    03:00 +21°C° 0 mm 2 mps 758 mmHg 94%
    04:00 +21°C° 0 mm 2 mps 758 mmHg 97%
    05:00 +23°C° 0 mm 2 mps 758 mmHg 91%
    06:00 +24°C° 0 mm 2 mps 758 mmHg 85%
    07:00 +26°C° 0 mm 3 mps 759 mmHg 79%
    08:00 +29°C° 0 mm 2 mps 759 mmHg 66%
    09:00 +34°C° 0 mm 2 mps 759 mmHg 52%
    10:00 +37°C° 0 mm 2 mps 758 mmHg 39%
    11:00 +40°C° 0 mm 3 mps 758 mmHg 33%
    12:00 +43°C° 0 mm 3 mps 757 mmHg 27%
    13:00 +45°C° 0 mm 4 mps 757 mmHg 21%
    14:00 +46°C° 0 mm 5 mps 756 mmHg 21%
    15:00 +46°C° 0 mm 5 mps 756 mmHg 21%
    16:00 +46°C° 0 mm 6 mps 755 mmHg 21%
    17:00 +42°C° 0 mm 6 mps 755 mmHg 27%
    18:00 +39°C° 0 mm 6 mps 755 mmHg 32%
    19:00 +36°C° 0 mm 6 mps 755 mmHg 37%
    20:00 +35°C° 0 mm 5 mps 756 mmHg 40%
    21:00 +33°C° 0 mm 5 mps 756 mmHg 43%
    22:00 +32°C° 0 mm 4 mps 757 mmHg 45%
    23:00 +30°C° 0 mm 3 mps 757 mmHg 46%

    Day after tomorrow, 19 January, Saturday

    Time Temperature Precipitation Wind Pressure Humidity
    00:00 +29°C° 0 mm 3 mps 757 mmHg 46%
    01:00 +29°C° 0 mm 2 mps 758 mmHg 47%
    02:00 +28°C° 0 mm 2 mps 758 mmHg 51%
    03:00 +28°C° 0 mm 2 mps 758 mmHg 54%
    04:00 +28°C° 0 mm 3 mps 758 mmHg 58%
    05:00 +29°C° 0 mm 3 mps 759 mmHg 59%
    06:00 +29°C° 0 mm 2 mps 759 mmHg 59%
    07:00 +30°C° 0 mm 2 mps 760 mmHg 59%
    08:00 +34°C° 0 mm 3 mps 760 mmHg 52%
    09:00 +36°C° 0 mm 3 mps 760 mmHg 44%
    10:00 +40°C° 0 mm 4 mps 760 mmHg 37%
    11:00 +36°C° 0 mm 5 mps 760 mmHg 46%
    12:00 +34°C° 0 mm 6 mps 760 mmHg 56%
    13:00 +32°C° 0 mm 7 mps 760 mmHg 65%
    14:00 +30°C° 0.1 mm 7 mps 761 mmHg 66%
    15:00 +29°C° 0.1 mm 6 mps 761 mmHg 66%
    16:00 +28°C° 0.1 mm 6 mps 761 mmHg 66%
    17:00 +27°C° 0.5 mm 5 mps 762 mmHg 73%
    18:00 +26°C° 0.5 mm 5 mps 763 mmHg 80%
    19:00 +23°C° 0.5 mm 4 mps 764 mmHg 88%
    20:00 +24°C° 0.2 mm 3 mps 764 mmHg 88%
    21:00 +24°C° 0.2 mm 3 mps 765 mmHg 89%
    22:00 +24°C° 0.2 mm 2 mps 766 mmHg 89%
    23:00 +23°C° 0.4 mm 2 mps 765 mmHg 91%

    20 January, Sunday

    Time Temperature Precipitation Wind Pressure Humidity
    00:00 +23°C° 0.4 mm 2 mps 765 mmHg 93%
    01:00 +23°C° 0.4 mm 2 mps 764 mmHg 95%
    02:00 +23°C° 0 mm 2 mps 764 mmHg 95%
    03:00 +23°C° 0 mm 2 mps 764 mmHg 95%
    04:00 +23°C° 0 mm 2 mps 764 mmHg 95%
    05:00 +23°C° 0.1 mm 2 mps 764 mmHg 94%
    06:00 +24°C° 0.1 mm 2 mps 765 mmHg 92%
    07:00 +24°C° 0.1 mm 2 mps 765 mmHg 91%
    08:00 +25°C° 0.2 mm 2 mps 765 mmHg 90%
    09:00 +25°C° 0.2 mm 1 mps 765 mmHg 89%
    10:00 +25°C° 0.2 mm 1 mps 765 mmHg 88%
    11:00 +25°C° 0.2 mm 2 mps 765 mmHg 87%
    12:00 +26°C° 0.2 mm 2 mps 764 mmHg 85%
    13:00 +26°C° 0.2 mm 3 mps 763 mmHg 84%
    14:00 +27°C° 0 mm 3 mps 763 mmHg 79%
    15:00 +28°C° 0 mm 4 mps 763 mmHg 73%
    16:00 +29°C° 0 mm 4 mps 762 mmHg 68%
    17:00 +28°C° 0 mm 4 mps 762 mmHg 73%
    18:00 +27°C° 0 mm 4 mps 763 mmHg 78%
    19:00 +25°C° 0 mm 4 mps 763 mmHg 83%
    20:00 +25°C° 0.1 mm 3 mps 763 mmHg 87%
    21:00 +25°C° 0.1 mm 3 mps 764 mmHg 90%
    22:00 +24°C° 0.1 mm 2 mps 764 mmHg 94%
    23:00 +24°C° 0 mm 2 mps 764 mmHg 95%

    21 January, Monday

    Time Temperature Precipitation Wind Pressure Humidity
    00:00 +24°C° 0 mm 2 mps 763 mmHg 96%
    01:00 +24°C° 0 mm 2 mps 763 mmHg 98%
    02:00 +24°C° 0 mm 2 mps 763 mmHg 98%
    03:00 +24°C° 0 mm 2 mps 762 mmHg 98%
    04:00 +24°C° 0 mm 2 mps 762 mmHg 98%
    05:00 +25°C° 0 mm 2 mps 762 mmHg 94%
    06:00 +26°C° 0 mm 2 mps 762 mmHg 91%
    07:00 +26°C° 0 mm 2 mps 763 mmHg 88%
    08:00 +28°C° 0 mm 3 mps 763 mmHg 78%
    09:00 +30°C° 0 mm 3 mps 763 mmHg 69%
    10:00 +33°C° 0 mm 3 mps 762 mmHg 60%
    11:00 +34°C° 0 mm 4 mps 762 mmHg 57%
    12:00 +35°C° 0 mm 5 mps 761 mmHg 54%
    13:00 +36°C° 0 mm 5 mps 761 mmHg 51%
    14:00 +35°C° 0 mm 5 mps 760 mmHg 54%
    15:00 +34°C° 0 mm 5 mps 760 mmHg 57%
    16:00 +34°C° 0 mm 6 mps 760 mmHg 60%
    17:00 +30°C° 1.1 mm 4 mps 760 mmHg 72%
    18:00 +28°C° 1.1 mm 3 mps 760 mmHg 84%
    19:00 +25°C° 1.1 mm 2 mps 761 mmHg 96%
    20:00 +25°C° 0.6 mm 3 mps 761 mmHg 95%
    21:00 +25°C° 0.6 mm 4 mps 762 mmHg 95%
    22:00 +25°C° 0.6 mm 5 mps 762 mmHg 95%
    23:00 +25°C° 0.4 mm 5 mps 761 mmHg 95%

    22 January, Tuesday

    Time Temperature Precipitation Wind Pressure Humidity
    00:00 +23°C° 0.4 mm 5 mps 761 mmHg 95%
    01:00 +23°C° 0.4 mm 6 mps 760 mmHg 95%
    02:00 +23°C° 0 mm 4 mps 759 mmHg 96%
    03:00 +23°C° 0 mm 2 mps 759 mmHg 97%
    04:00 +23°C° 0 mm 1 mps 759 mmHg 98%
    05:00 +24°C° 0 mm 1 mps 759 mmHg 94%
    06:00 +25°C° 0 mm 1 mps 759 mmHg 90%
    07:00 +26°C° 0 mm 1 mps 760 mmHg 87%
    08:00 +29°C° 0 mm 1 mps 759 mmHg 73%
    09:00 +34°C° 0 mm 2 mps 759 mmHg 59%
    10:00 +37°C° 0 mm 2 mps 759 mmHg 45%
    11:00 +39°C° 0 mm 2 mps 758 mmHg 39%
    12:00 +42°C° 0 mm 3 mps 757 mmHg 34%
    13:00 +44°C° 0 mm 4 mps 757 mmHg 28%
    14:00 +41°C° 0 mm 4 mps 756 mmHg 35%
    15:00 +37°C° 0 mm 5 mps 756 mmHg 43%
    16:00 +34°C° 0 mm 5 mps 755 mmHg 50%
    17:00 +33°C° 0 mm 5 mps 756 mmHg 56%
    18:00 +32°C° 0 mm 5 mps 756 mmHg 61%
    19:00 +30°C° 0 mm 5 mps 756 mmHg 66%
    20:00 +29°C° 0 mm 5 mps 756 mmHg 68%
    21:00 +29°C° 0 mm 5 mps 756 mmHg 70%
    22:00 +28°C° 0 mm 5 mps 757 mmHg 73%
    23:00 +28°C° 0 mm 4 mps 756 mmHg 71%
    Show more